Home > Weather > Córdoba > Past weeks

Flag for Spain Past Weather in Córdoba, Spain — Yesterday and Last 2 Weeks

Now
102 °F

Extremely hot.


Feels Like: 100 °F
Forecast: 64 / 106 °F
Wind: 7 mph from West

Location: Cordoba / Aeropuerto

Current Time: Jul 25, 2016 at 7:52:19 PM

Latest Report: Jul 25, 2016 at 7:00 PM


Visibility: N/A

Pressure: 29.92 "Hg

Humidity: 18%

Dew Point: 52 °F

Location of CórdobaLocation

Past Weather in Córdoba — Graph

°F

Córdoba Temperature Yesterday

Maximum temperature yesterday: 100 °F (at 6:00 PM)
Minimum temperature yesterday: 72 °F (at 7:30 AM)
Average temperature yesterday: 86 °F

High & Low Weather Summary for the Past Weeks

 TemperatureHumidityPressure
High108 °F (Jul 19, 7:00 PM)83% (Jul 23, 6:00 AM)30.09 "Hg (Jul 23, 6:00 AM)
Low64 °F (Jul 13, 6:30 AM)11% (Jul 13, 8:00 PM)29.83 "Hg (Jul 10, 8:00 PM)
Average86 °F39%29.97 "Hg
* Reported Jul 10 6:00 PM — Jul 25 6:30 PM, Córdoba, Weather by CustomWeather, © 2016

Note: Actual official high and low records may vary slightly from our data, if they occured in-between our weather recording intervals... More about our weather records

Advertising

Córdoba Weather History for the Previous 24 Hours

Scroll right to see more
 ConditionsComfort  
Time TempWeatherWind HumidityBarometerVisibility
6:30 PM
Mon, Jul 25
102 °FExtremely hot.6 mph20%29.95 "HgN/A
6:00 PM102 °FExtremely hot.2 mph18%29.95 "HgN/A
5:30 PM102 °FExtremely hot.3 mph18%29.95 "HgN/A
5:00 PM102 °FExtremely hot.5 mph20%29.95 "HgN/A
4:00 PM100 °FPassing clouds.5 mph22%29.98 "HgN/A
3:30 PM99 °FExtremely hot.3 mph22%29.98 "HgN/A
3:00 PM99 °FSunny.1 mph22%29.98 "Hg10 mi
2:30 PM97 °FPassing clouds.6 mph23%30.01 "HgN/A
2:00 PM95 °FPassing clouds.5 mph23%30.01 "HgN/A
1:30 PM93 °FSunny.3 mph26%30.04 "Hg10 mi
1:00 PM91 °FSunny.3 mph26%30.04 "Hg10 mi
12:30 PM90 °FSunny.3 mph29%30.04 "Hg10 mi
12:00 PM88 °FSunny.2 mph31%30.04 "Hg10 mi
11:30 AM88 °FSunny.No wind33%30.04 "Hg10 mi
11:00 AM86 °FSunny.1 mph35%30.07 "Hg10 mi
10:30 AM82 °FSunny.1 mph37%30.07 "Hg10 mi
10:00 AM82 °FSunny.1 mph40%30.07 "Hg10 mi
9:30 AM81 °FSunny.1 mph42%30.04 "Hg10 mi
9:00 AM77 °FSunny.1 mph47%30.04 "Hg10 mi
8:30 AM77 °FSunny.No wind47%30.04 "Hg10 mi
8:00 AM72 °FClear.No wind57%30.04 "Hg10 mi
7:30 AM70 °FMild.No wind60%30.04 "HgN/A
7:00 AM70 °FMild.2 mph57%30.04 "HgN/A
6:30 AM72 °FMild.No wind57%30.01 "HgN/A
6:00 AM70 °FMild.No wind60%30.01 "HgN/A
5:30 AM72 °FMild.1 mph57%30.01 "HgN/A
5:00 AM73 °FMild.1 mph53%30.01 "HgN/A
4:00 AM75 °FMild.3 mph47%30.01 "HgN/A
3:30 AM75 °FMild.2 mph50%30.01 "HgN/A
3:00 AM75 °FMild.3 mph54%30.01 "HgN/A
2:30 AM77 °FWarm.2 mph51%30.01 "HgN/A
2:00 AM77 °FWarm.5 mph47%30.01 "HgN/A
1:30 AM79 °FWarm.3 mph45%30.01 "HgN/A
1:00 AM81 °FPleasantly warm.3 mph39%30.01 "HgN/A
12:30 AM82 °FPleasantly warm.7 mph37%30.01 "HgN/A
12:00 AM82 °FPleasantly warm.6 mph37%30.01 "HgN/A
11:30 PM
Sun, Jul 24
84 °FPleasantly warm.3 mph33%29.98 "HgN/A
11:00 PM88 °FPleasantly warm.5 mph29%29.98 "HgN/A
10:30 PM88 °FPleasantly warm.7 mph29%29.95 "HgN/A
10:00 PM90 °FHot.3 mph27%29.95 "HgN/A
9:30 PM91 °FHot.12 mph26%29.92 "HgN/A
9:00 PM93 °FExtremely hot.12 mph24%29.92 "HgN/A
8:30 PM97 °FExtremely hot.14 mph20%29.92 "HgN/A
8:00 PM99 °FExtremely hot.7 mph21%29.92 "HgN/A
7:30 PM100 °FExtremely hot.8 mph20%29.92 "HgN/A
7:00 PM100 °FExtremely hot.3 mph20%29.92 "HgN/A
Weather by CustomWeather, © 2016

See weather overviewHow to use our weather pages